Wilmington, OH

8:18 PM EDT on August 30, 2015 (GMT -0400)
Little House On The Prairie | | Change Station
CLOSE
Current Station
Personal Weather Station
Location: Wilmington, OH
Elevation: 1043 ft
Nearby Weather Stations

Elev 1043 ft 39.45 °N, 83.82 °W | Updated 34 seconds ago

Partly Cloudy
Partly Cloudy
74.3 °F
Feels Like 76 °F
N
2.3
Wind Variable Wind from SE
Gusts 2.3 mph

Today
High -- | Low -- °F
--% Chance of Precip.
Yesterday
High -- | Low -- °F
Precip. -- in
7:01 AM 8:09 PM
Full, 98% visible
Pressure 30.05 in
Visibility 10.0 miles
Clouds Few 3900 ft
Heat Index 76 °F
Dew Point 64 °F
Humidity 71%
Rainfall 0.00 in
Snow Depth Not available.
UV 0 out of 12
Pollen 10.00 out of 12
Air Quality Not available.
Flu Activity Not available.
METAR KILN 302354Z AUTO 19003KT 10SM FEW039 23/18 A3007 RMK AO2 LTG DSNT E SLP175 T02330178 10294 20228 53004
Pressure 30.05 in
Visibility 10.0 miles
Clouds Few 3900 ft
Heat Index 76 °F
Dew Point 64 °F
Humidity 71%
Rainfall 0.00 in
Snow Depth Not available.
UV 0 out of 12
Pollen 10.00 out of 12
Air Quality Not available.
Flu Activity Not available.
METAR KILN 302354Z AUTO 19003KT 10SM FEW039 23/18 A3007 RMK AO2 LTG DSNT E SLP175 T02330178 10294 20228 53004

10-Day Weather Forecast

×

Almanac

Astronomy

Aug. 30, 2015 Rise Set
Actual Time
Civil Twilight
Nautical Twilight
Astronomical Twilight
Moon
Length of Visible Light
Length of Day
Tomorrow will be .
, % of the Moon is Illuminated

Today's Extremes

State Highs State Lows

Community

WunderPhotos

Upload Photos

1,851,100 photos uploaded!

WunderBlogs® & News

Nearby

Air Quality

  Air Quality AQ Index Pollutant
Not available.

Snow Depth

Station Depth Elevation

Earthquake Activity

City Distance Mag. Time & Date
Minimum magnitude displayed is 2.5.

Coastal Water Temperatures

Place Temperature

Stations

Nearby Weather Stations

Station Location Temp. Windchill Dew Point Humidity Wind Precip. Elev Updated Type